Regional Weather Roundup
Issued by NWS

Home | Current Version | Previous Version | Text Only | Print | Product List | Glossary Off
Versions: 1 2 3 4 5 6 7 8 9 10 11 12 13 14 15 16 17 18 19 20 21 22 23 24 25 26 27 28 29 30 31 32 33 34 35 36 37 38 39 40 41 42 43 44 45 46 47 48 49 50

000
ASUS43 KLOT 301208
RWRIL

ILLINOIS REGIONAL WEATHER ROUNDUP
NATIONAL WEATHER SERVICE CHICAGO/ROMEOVILLE IL
700 AM CDT THU JUL 30 2015

NOTE: "FAIR" INDICATES FEW OR NO CLOUDS BELOW 12,000 FEET WITH NO
SIGNIFICANT WEATHER AND/OR OBSTRUCTIONS TO VISIBILITY.

* THESE STATIONS ARE NOT UNDER NWS QUALITY CONTROL. THEY ALSO MAY NOT
  REPORT WEATHER SUCH AS PRECIPITATION OR FOG.

ILZ001-002-007-009-015-016-024-301300-
NORTHWEST ILLINOIS

CITY           SKY/WX    TMP DP  RH WIND       PRES   REMARKS
MOLINE         SUNNY     66  60  81 W7        30.10S
6HR MIN TEMP:  61; 6HR MAX TEMP:  66;

STERLING*      SUNNY     64  61  88 W6        30.08R
SAVANNA*       SUNNY     67  59  74 NW7       30.08S
$$

ILZ003-004-008-010-011-017-018-301300-
NORTH CENTRAL ILLINOIS

CITY           SKY/WX    TMP DP  RH WIND       PRES   REMARKS
ROCKFORD       SUNNY     66  58  75 W5        30.08R
6HR MIN TEMP:  63; 6HR MAX TEMP:  67;

FREEPORT*      SUNNY     63  58  83 W5        30.09S
ROCHELLE*      SUNNY     61  59  94 W5        30.09R
DE KALB*       SUNNY     64  59  82 W8        30.08R
PERU*          SUNNY     66  59  79 W10       30.10R
$$

ILZ005-006-012>014-019>023-301300-
NORTHEAST ILLINOIS

CITY           SKY/WX    TMP DP  RH WIND       PRES   REMARKS
CHICAGO-OHARE  SUNNY     67  59  75 W8        30.05R
6HR MIN TEMP:  65; 6HR MAX TEMP:  70;

CHICAGO-MIDWAY SUNNY     71  58  63 W8        30.05R
6HR MIN TEMP:  69; 6HR MAX TEMP:  74;

AURORA         SUNNY     62  58  86 W3        30.07R
6HR MIN TEMP:  58; 6HR MAX TEMP:  64;

LANSING*       SUNNY     67  56  68 W7        30.06R
JOLIET*        SUNNY     68  61  78 W3        30.08R
WAUKEGAN       SUNNY     67  58  72 SW3       30.02R
6HR MIN TEMP:  64; 6HR MAX TEMP:  70;

DUPAGE AIRPORT SUNNY     65  58  78 W6        30.06R
6HR MIN TEMP:  63; 6HR MAX TEMP:  67;

KANKAKEE*      SUNNY     64  61  88 W6        30.09R
WHEELING       SUNNY     68  57  68 W5        30.05S
6HR MIN TEMP:  67; 6HR MAX TEMP:  72;

MORRIS*        SUNNY     64  60  85 W9        30.07R
ROMEOVILLE*    SUNNY     64  59  83 W3        30.07S
NORTHERLY ISL    N/A     71  57  61 SW9         N/A
$$

LMZ740>746-301300-
SOUTHERN LAKE MICHIGAN

STATION/POSITION SKY/WX   TEMP    WIND        PRES    VSBY  WAVE
                          AIR SEA DIR/SP/G                  HT/PER
                          (F)     (DEG/KT/KT) (MB)    (MI)  (FT/S)
HARRISON CRIB              71     270/ 15/ 17   N/A
BURNHAM HARBOR             71     250/  8/ 11   N/A
BURNS HARBOR               72     280/ 14/ 18 1017.3R
MICHIGAN CITY              73     260/ 19/ 23   N/A
MICHIGAN CITY 6N           73 73  290/ 14/ 17   N/A           4/ 4
ST. JOSEPH                 72 73  320/ 14/ 16   N/A           4/ 5
$$

ILZ025>027-034>036-040-047-049-050-058-095>099-301300-
WEST-CENTRAL ILLINOIS

CITY           SKY/WX    TMP DP  RH WIND       PRES   REMARKS
QUINCY         PTCLDY    67  60  78 W3        30.15R
GALESBURG*     SUNNY     65  59  81 W8        30.12S
MACOMB*        SUNNY     63  61  94 W5        30.16R
JACKSONVILLE*  SUNNY     66  63  89 CALM      30.14R
PITTSFIELD*    CLEAR     67  60  78 W3        30.16R
$$

ILZ028>032-037-038-041>044-048-051>054-059>061-301300-
CENTRAL ILLINOIS

CITY           SKY/WX    TMP DP  RH WIND       PRES   REMARKS
PONTIAC        SUNNY     65  63  91 W5        30.11R
BLOOMINGTON    SUNNY     70  60  70 NW10      30.12S
DECATUR        SUNNY     70  59  68 NW9       30.12R
PEORIA         SUNNY     71  59  65 NW6       30.12R
6HR MIN TEMP:  67; 6HR MAX TEMP:  71;

LACON*         SUNNY     67  59  76 SW5       30.10R
LINCOLN*       SUNNY     69  60  75 CALM      30.12S
SPRINGFIELD    SUNNY     64  60  87 CALM      30.13R
6HR MIN TEMP:  62; 6HR MAX TEMP:  67;

TAYLORVILLE    SUNNY     63  61  94 CALM      30.13S
$$

ILZ033-039-045-046-055>057-062-063-301300-
EAST-CENTRAL ILLINOIS

CITY           SKY/WX    TMP DP  RH WIND       PRES   REMARKS
CHAMPAIGN      SUNNY     63  60  90 W5        30.11R
DANVILLE*      SUNNY     64  61  87 W6        30.07S
RANTOUL*       SUNNY     67  61  81 NW9       30.10S
MATTOON        SUNNY     66  59  78 NW7       30.11R
PARIS*         SUNNY     64  61  93 W3        30.11R
$$

ILZ079-100>102-301300-
SOUTHWEST ILLINOIS

CITY           SKY/WX    TMP DP  RH WIND       PRES   REMARKS
ALTON          SUNNY     66  59  77 NW6       30.15R
BELLEVILLE     SUNNY     67  64  89 VRB1      30.13R
CAHOKIA*       SUNNY     67  63  87 CALM      30.14R
SPARTA*        SUNNY     67  62  83 CALM      30.15R
$$

ILZ064>066-069>071-074>076-080>082-084>086-088>090-092>094-301300-
SOUTH-CENTRAL ILLINOIS

CITY           SKY/WX    TMP DP  RH WIND       PRES   REMARKS
CARBONDALE     SUNNY     68  64  87 CALM      30.13R
6HR MIN TEMP:  65; 6HR MAX TEMP:  72;

CAIRO*         SUNNY     69  64  85 CALM      30.12S
EFFINGHAM*     SUNNY     66  59  79 W3        30.14R
MARION         SUNNY     68  64  88 CALM      30.13S
MT. VERNON     SUNNY     70  57  64 N3        30.13S
CENTRALIA*     SUNNY     67  61  79 N3        30.13S
SALEM*         SUNNY     67  61  81 CALM      30.13S
METROPOLIS*    SUNNY     69  66  90 CALM      30.12S
$$

ILZ067-068-072-073-078-083-087-091-301300-
SOUTHEAST ILLINOIS

CITY           SKY/WX    TMP DP  RH WIND       PRES   REMARKS
LAWRENCEVILLE  SUNNY     66  62  87 NW6       30.11R
FLORA*         SUNNY     66  60  80 NW5       30.12R
FAIRFIELD*     SUNNY     68  62  80 N3        30.11S
HARRISBURG*    SUNNY     66  65  99 CALM      30.13R
ROBINSON*      SUNNY     64  62  94 CALM      30.11S
CARMI*         SUNNY     67  59  77 CALM      30.11R
$$

ABBREVIATIONS USED IN REMARKS
   TC - TEMPERATURE IN CELSIUS
  WCI - WIND CHILL INDEX
   HX - HEAT INDEX
  VSB - VISIBILITY
$$



USA.gov is the U.S. government's official web portal to all federal, state and local government web resources and services.